EJA157 KMLU-KCOU

Flight info

Callsign EJA157
Flight time 1h 12m
Altitude 40000
Route LIT TBN COU
Aircraft C25C/M-L/C

Departure

Time 2026-05-05 00:03
Airport Monroe Regional Airport (KMLU)

Arrival

Time 2026-05-05 01:15
Airport Columbia Regional Airport (KCOU)
Time Latitude Longitude Altitude Speed Heading
2026-05-04 23:50 32.51157 -92.04181 80 ft 0 kts 268°
2026-05-04 23:58 32.51157 -92.04187 80 ft 5 kts 268°
2026-05-04 23:59 32.51173 -92.04165 80 ft 12 kts 81°
2026-05-04 23:59 32.51176 -92.04009 77 ft 22 kts 90°
2026-05-04 23:59 32.51245 -92.03867 80 ft 19 kts 53°
2026-05-04 23:59 32.51324 -92.03743 82 ft 19 kts 52°
2026-05-05 00:00 32.51409 -92.03614 82 ft 20 kts 52°
2026-05-05 00:00 32.51437 -92.03571 82 ft 20 kts 52°
2026-05-05 00:00 32.51588 -92.03341 76 ft 22 kts 51°
2026-05-05 00:00 32.51691 -92.03206 73 ft 23 kts 46°
2026-05-05 00:01 32.51802 -92.03074 74 ft 22 kts 45°
2026-05-05 00:01 32.51894 -92.02958 77 ft 18 kts 62°
2026-05-05 00:01 32.51892 -92.02918 77 ft 0 kts 135°
2026-05-05 00:02 32.51869 -92.02891 76 ft 13 kts 136°
2026-05-05 00:02 32.51794 -92.02905 75 ft 17 kts 224°
2026-05-05 00:02 32.51421 -92.03333 89 ft 128 kts 224°
2026-05-05 00:03 32.50647 -92.04212 732 ft 174 kts 221°
2026-05-05 00:03 32.49779 -92.05301 1629 ft 179 kts 225°
2026-05-05 00:03 32.48890 -92.06439 2525 ft 204 kts 225°
2026-05-05 00:03 32.48075 -92.07920 3436 ft 232 kts 252°
2026-05-05 00:04 32.48090 -92.09936 4369 ft 259 kts 278°
2026-05-05 00:04 32.49061 -92.11834 5298 ft 282 kts 315°
2026-05-05 00:04 32.50729 -92.12724 6216 ft 256 kts 349°
2026-05-05 00:04 32.52473 -92.12770 7094 ft 254 kts 355°
2026-05-05 00:05 32.54291 -92.12750 7991 ft 268 kts 356°
2026-05-05 00:05 32.56195 -92.12741 8923 ft 279 kts 354°
2026-05-05 00:05 32.58131 -92.12763 9875 ft 273 kts 355°
2026-05-05 00:05 32.60016 -92.12791 10745 ft 275 kts 354°
2026-05-05 00:06 32.61982 -92.12819 11642 ft 297 kts 354°
2026-05-05 00:06 32.64123 -92.12847 12580 ft 316 kts 355°
2026-05-05 00:06 32.66384 -92.12862 13548 ft 332 kts 355°
2026-05-05 00:06 32.68747 -92.12887 14445 ft 344 kts 355°
2026-05-05 00:07 32.71187 -92.12912 15337 ft 354 kts 355°
2026-05-05 00:07 32.73659 -92.12939 16252 ft 362 kts 355°
2026-05-05 00:07 32.76217 -92.12966 17198 ft 369 kts 355°
2026-05-05 00:07 32.78813 -92.12991 18171 ft 374 kts 355°
2026-05-05 00:08 32.81406 -92.13022 19023 ft 379 kts 354°
2026-05-05 00:08 32.84061 -92.13047 19891 ft 382 kts 354°
2026-05-05 00:08 32.86739 -92.13078 20794 ft 385 kts 354°
2026-05-05 00:08 32.89399 -92.13104 21709 ft 386 kts 354°
2026-05-05 00:09 32.92083 -92.13133 22665 ft 386 kts 354°
2026-05-05 00:09 32.94785 -92.13163 23614 ft 386 kts 353°
2026-05-05 00:09 32.97470 -92.13189 24454 ft 384 kts 352°
2026-05-05 00:09 33.00105 -92.13220 25291 ft 382 kts 352°
2026-05-05 00:10 33.02761 -92.13245 26176 ft 378 kts 351°
2026-05-05 00:10 33.05377 -92.13274 27081 ft 373 kts 350°
2026-05-05 00:10 33.07968 -92.13300 28016 ft 368 kts 349°
2026-05-05 00:10 33.10512 -92.13327 28986 ft 362 kts 349°
2026-05-05 00:11 33.12995 -92.13354 29989 ft 355 kts 348°
2026-05-05 00:11 33.15445 -92.13377 30844 ft 348 kts 347°
2026-05-05 00:11 33.17818 -92.13404 31717 ft 340 kts 347°
2026-05-05 00:11 33.20172 -92.13427 32638 ft 331 kts 346°
2026-05-05 00:12 33.22445 -92.13451 33582 ft 321 kts 346°
2026-05-05 00:12 33.24622 -92.13474 34452 ft 311 kts 345°
2026-05-05 00:12 33.26758 -92.13495 35310 ft 301 kts 344°
2026-05-05 00:12 33.28794 -92.13517 36180 ft 290 kts 344°
2026-05-05 00:13 33.30775 -92.13537 37093 ft 277 kts 343°
2026-05-05 00:13 33.32661 -92.13555 38038 ft 264 kts 342°
2026-05-05 00:13 33.34450 -92.13572 38942 ft 249 kts 341°
2026-05-05 00:13 33.36110 -92.13589 39725 ft 234 kts 340°
2026-05-05 00:14 33.37767 -92.13628 39896 ft 244 kts 340°
2026-05-05 00:14 33.39531 -92.13671 39901 ft 261 kts 342°
2026-05-05 00:14 33.41400 -92.13692 39906 ft 276 kts 343°
2026-05-05 00:14 33.43369 -92.13704 39920 ft 289 kts 343°
2026-05-05 00:15 33.45427 -92.13721 39922 ft 301 kts 344°
2026-05-05 00:15 33.47563 -92.13746 39920 ft 312 kts 344°
2026-05-05 00:15 33.49748 -92.13769 39919 ft 323 kts 345°
2026-05-05 00:16 33.54391 -92.13816 39912 ft 340 kts 345°
2026-05-05 00:16 33.59207 -92.13864 39914 ft 351 kts 346°
2026-05-05 00:17 33.64083 -92.13912 39913 ft 351 kts 346°
2026-05-05 00:17 33.69000 -92.13970 39911 ft 355 kts 346°
2026-05-05 00:18 33.73939 -92.14022 39907 ft 358 kts 346°
2026-05-05 00:18 33.78941 -92.14076 39903 ft 360 kts 346°
2026-05-05 00:19 33.83945 -92.14131 39906 ft 361 kts 346°
2026-05-05 00:19 33.88997 -92.14187 39900 ft 363 kts 346°
2026-05-05 00:20 33.94031 -92.14241 39897 ft 364 kts 346°
2026-05-05 00:20 33.99110 -92.14296 39892 ft 364 kts 346°
2026-05-05 00:21 34.04155 -92.14353 39890 ft 364 kts 346°
2026-05-05 00:21 34.09244 -92.14409 39887 ft 364 kts 346°
2026-05-05 00:22 34.14298 -92.14463 39889 ft 364 kts 346°
2026-05-05 00:22 34.19364 -92.14519 39889 ft 362 kts 346°
2026-05-05 00:23 34.24374 -92.14576 39886 ft 360 kts 346°
2026-05-05 00:23 34.29389 -92.14631 39887 ft 358 kts 346°
2026-05-05 00:24 34.33517 -92.14677 39888 ft 357 kts 346°
2026-05-05 00:24 34.39297 -92.14740 39889 ft 356 kts 346°
2026-05-05 00:25 34.43421 -92.14787 39882 ft 355 kts 346°
2026-05-05 00:25 34.48370 -92.14843 39881 ft 354 kts 346°
2026-05-05 00:26 34.53285 -92.14896 39879 ft 353 kts 346°
2026-05-05 00:26 34.58203 -92.14951 39875 ft 352 kts 346°
2026-05-05 00:27 34.63090 -92.15006 39870 ft 352 kts 346°
2026-05-05 00:27 34.67995 -92.15061 39867 ft 352 kts 346°
2026-05-05 00:28 34.72882 -92.15115 39867 ft 351 kts 346°
2026-05-05 00:28 34.77772 -92.15171 39867 ft 350 kts 346°
2026-05-05 00:29 34.82623 -92.15220 39870 ft 351 kts 346°
2026-05-05 00:29 34.87522 -92.15172 39859 ft 351 kts 347°
2026-05-05 00:30 34.92404 -92.15159 39864 ft 350 kts 346°
2026-05-05 00:30 34.97256 -92.15138 39862 ft 350 kts 347°
2026-05-05 00:31 35.02140 -92.15115 39860 ft 350 kts 346°
2026-05-05 00:31 35.06992 -92.15094 39863 ft 350 kts 346°
2026-05-05 00:32 35.11873 -92.15074 39865 ft 350 kts 346°
2026-05-05 00:32 35.16751 -92.15053 39863 ft 350 kts 346°
2026-05-05 00:33 35.21594 -92.15032 39869 ft 350 kts 346°
2026-05-05 00:33 35.26449 -92.15010 39870 ft 350 kts 346°
2026-05-05 00:34 35.31338 -92.14990 39868 ft 350 kts 346°
2026-05-05 00:34 35.36186 -92.14967 39865 ft 350 kts 346°
2026-05-05 00:35 35.41066 -92.14947 39860 ft 350 kts 346°
2026-05-05 00:35 35.45929 -92.14926 39859 ft 350 kts 346°
2026-05-05 00:36 35.50800 -92.14904 39859 ft 350 kts 345°
2026-05-05 00:36 35.55674 -92.14882 39858 ft 351 kts 346°
2026-05-05 00:37 35.60575 -92.14863 39854 ft 351 kts 346°
2026-05-05 00:37 35.65446 -92.14840 39849 ft 351 kts 346°
2026-05-05 00:38 35.70352 -92.14819 39844 ft 352 kts 346°
2026-05-05 00:38 35.75233 -92.14797 39851 ft 352 kts 346°
2026-05-05 00:39 35.80139 -92.14776 39853 ft 352 kts 346°
2026-05-05 00:39 35.85051 -92.14754 39844 ft 352 kts 345°
2026-05-05 00:40 35.89942 -92.14732 39846 ft 353 kts 345°
2026-05-05 00:40 35.94873 -92.14711 39841 ft 354 kts 345°
2026-05-05 00:41 35.99814 -92.14688 39831 ft 354 kts 345°
2026-05-05 00:41 36.04720 -92.14668 39838 ft 353 kts 345°
2026-05-05 00:42 36.09654 -92.14645 39837 ft 353 kts 345°
2026-05-05 00:42 36.14558 -92.14624 39828 ft 354 kts 345°
2026-05-05 00:43 36.19461 -92.14601 39822 ft 354 kts 345°
2026-05-05 00:43 36.24395 -92.14580 39820 ft 354 kts 345°
2026-05-05 00:44 36.29314 -92.14558 39821 ft 355 kts 345°
2026-05-05 00:44 36.34272 -92.14536 39821 ft 355 kts 345°
2026-05-05 00:45 36.39193 -92.14514 39816 ft 355 kts 345°
2026-05-05 00:45 36.44154 -92.14492 39815 ft 356 kts 345°
2026-05-05 00:46 36.49095 -92.14469 39811 ft 356 kts 345°
2026-05-05 00:46 36.54057 -92.14447 39810 ft 356 kts 345°
2026-05-05 00:47 36.58993 -92.14426 39804 ft 356 kts 345°
2026-05-05 00:47 36.63975 -92.14403 39809 ft 357 kts 345°
2026-05-05 00:48 36.68924 -92.14379 39809 ft 357 kts 345°
2026-05-05 00:48 36.73883 -92.14359 39808 ft 357 kts 345°
2026-05-05 00:49 36.78871 -92.14336 39813 ft 358 kts 345°
2026-05-05 00:49 36.83880 -92.14313 39810 ft 359 kts 345°
2026-05-05 00:50 36.88858 -92.14292 39812 ft 360 kts 345°
2026-05-05 00:50 36.93894 -92.14267 39808 ft 361 kts 345°
2026-05-05 00:51 36.98908 -92.14245 39798 ft 362 kts 345°
2026-05-05 00:51 37.03970 -92.14222 39793 ft 363 kts 346°
2026-05-05 00:52 37.09050 -92.14200 39789 ft 365 kts 346°
2026-05-05 00:52 37.14101 -92.14176 39777 ft 366 kts 346°
2026-05-05 00:53 37.19215 -92.14152 39763 ft 367 kts 346°
2026-05-05 00:53 37.24320 -92.14130 39764 ft 368 kts 346°
2026-05-05 00:54 37.29424 -92.14106 39762 ft 369 kts 346°
2026-05-05 00:54 37.34589 -92.14083 39758 ft 370 kts 346°
2026-05-05 00:55 37.39722 -92.14059 39753 ft 371 kts 347°
2026-05-05 00:55 37.44925 -92.14036 39746 ft 373 kts 347°
2026-05-05 00:56 37.50104 -92.14012 39749 ft 374 kts 347°
2026-05-05 00:56 37.55330 -92.13987 39509 ft 373 kts 347°
2026-05-05 00:56 37.57915 -92.13969 38757 ft 369 kts 346°
2026-05-05 00:57 37.60452 -92.13956 37919 ft 365 kts 346°
2026-05-05 00:57 37.62985 -92.13948 37007 ft 361 kts 347°
2026-05-05 00:57 37.65484 -92.13937 36136 ft 357 kts 347°
2026-05-05 00:57 37.67966 -92.13925 35298 ft 355 kts 347°
2026-05-05 00:58 37.70428 -92.13916 34487 ft 352 kts 347°
2026-05-05 00:58 37.72846 -92.13902 33705 ft 350 kts 348°
2026-05-05 00:58 37.75310 -92.13727 32789 ft 356 kts 354°
2026-05-05 00:58 37.77789 -92.13340 31904 ft 358 kts 356°
2026-05-05 00:59 37.80268 -92.12949 31050 ft 359 kts 357°
2026-05-05 00:59 37.82721 -92.12569 30229 ft 360 kts 358°
2026-05-05 00:59 37.85216 -92.12177 29354 ft 362 kts 359°
2026-05-05 00:59 37.87730 -92.11780 28415 ft 362 kts 359°
2026-05-05 01:00 37.90239 -92.11380 27515 ft 363 kts 359°
2026-05-05 01:00 37.92712 -92.10992 26648 ft 362 kts 360°
2026-05-05 01:00 37.95212 -92.10596 25810 ft 361 kts
2026-05-05 01:00 37.97705 -92.10205 24983 ft 360 kts
2026-05-05 01:01 38.00189 -92.09808 24183 ft 358 kts
2026-05-05 01:01 38.02669 -92.09418 23406 ft 356 kts
2026-05-05 01:01 38.05097 -92.09032 22524 ft 354 kts
2026-05-05 01:01 38.07536 -92.08647 21637 ft 352 kts
2026-05-05 01:02 38.09967 -92.08262 20771 ft 350 kts
2026-05-05 01:02 38.12388 -92.07876 19926 ft 348 kts
2026-05-05 01:02 38.14787 -92.07498 19174 ft 344 kts
2026-05-05 01:02 38.17144 -92.07118 18516 ft 339 kts
2026-05-05 01:03 38.19471 -92.06752 17849 ft 335 kts
2026-05-05 01:03 38.21739 -92.06390 17116 ft 331 kts
2026-05-05 01:03 38.24038 -92.06025 16386 ft 329 kts
2026-05-05 01:03 38.26304 -92.05665 15679 ft 326 kts
2026-05-05 01:04 38.28526 -92.05309 14989 ft 324 kts
2026-05-05 01:04 38.32854 -92.04613 13309 ft 303 kts
2026-05-05 01:04 38.34920 -92.04288 12425 ft 295 kts
2026-05-05 01:05 38.36937 -92.03965 11567 ft 289 kts
2026-05-05 01:05 38.38918 -92.03651 10738 ft 285 kts
2026-05-05 01:05 38.40916 -92.03337 10037 ft 294 kts
2026-05-05 01:05 38.42898 -92.03012 9986 ft 285 kts
2026-05-05 01:06 38.44837 -92.02702 9904 ft 279 kts
2026-05-05 01:06 38.46775 -92.02394 9493 ft 281 kts
2026-05-05 01:06 38.48720 -92.02102 9053 ft 280 kts 358°
2026-05-05 01:06 38.50637 -92.02127 8623 ft 277 kts 351°
2026-05-05 01:07 38.52564 -92.02289 8200 ft 277 kts 349°
2026-05-05 01:07 38.54493 -92.02486 7780 ft 278 kts 349°
2026-05-05 01:07 38.56425 -92.02688 7366 ft 278 kts 349°
2026-05-05 01:07 38.58365 -92.02898 6954 ft 279 kts 349°
2026-05-05 01:08 38.60309 -92.03110 6552 ft 280 kts 349°
2026-05-05 01:08 38.62241 -92.03316 6158 ft 282 kts 350°
2026-05-05 01:08 38.64201 -92.03531 5731 ft 283 kts 349°
2026-05-05 01:08 38.66168 -92.03738 5317 ft 283 kts 349°
2026-05-05 01:09 38.68140 -92.03962 4904 ft 284 kts 349°
2026-05-05 01:09 38.70110 -92.04181 4497 ft 284 kts 349°
2026-05-05 01:09 38.72079 -92.04412 4079 ft 282 kts 349°
2026-05-05 01:09 38.73948 -92.04618 3667 ft 264 kts 349°
2026-05-05 01:10 38.75745 -92.04813 3250 ft 255 kts 349°
2026-05-05 01:10 38.77539 -92.05018 2832 ft 259 kts 349°
2026-05-05 01:10 38.78729 -92.05160 2613 ft 258 kts 350°
2026-05-05 01:10 38.80968 -92.05736 2499 ft 233 kts 324°
2026-05-05 01:11 38.82154 -92.07019 2491 ft 223 kts 311°
2026-05-05 01:11 38.83205 -92.08479 2490 ft 221 kts 300°
2026-05-05 01:11 38.83761 -92.09580 2494 ft 221 kts 297°
2026-05-05 01:11 38.84574 -92.11260 2495 ft 222 kts 296°
2026-05-05 01:12 38.85374 -92.12955 2490 ft 217 kts 296°
2026-05-05 01:12 38.86128 -92.14541 2496 ft 199 kts 296°
2026-05-05 01:12 38.86820 -92.15978 2445 ft 177 kts 296°
2026-05-05 01:12 38.87341 -92.17290 2287 ft 156 kts 274°
2026-05-05 01:13 38.86986 -92.18432 2102 ft 131 kts 229°
2026-05-05 01:13 38.86457 -92.19218 2024 ft 99 kts 231°
2026-05-05 01:13 38.85806 -92.19641 1662 ft 127 kts 205°
2026-05-05 01:13 38.84900 -92.20139 1623 ft 143 kts 206°
2026-05-05 01:14 38.84088 -92.20545 1350 ft 113 kts 205°
2026-05-05 01:14 38.83356 -92.20942 1190 ft 115 kts 201°
2026-05-05 01:14 38.82600 -92.21331 1061 ft 113 kts 204°
2026-05-05 01:14 38.81943 -92.21672 890 ft 94 kts 201°
2026-05-05 01:15 38.81541 -92.21871 889 ft 27 kts 202°
2026-05-05 01:15 38.81490 -92.21892 890 ft 8 kts 35°
2026-05-05 01:15 38.81574 -92.21867 889 ft 16 kts 332°
2026-05-05 01:15 38.81650 -92.21954 888 ft 16 kts
2026-05-05 01:16 38.81785 -92.21891 888 ft 23 kts 21°
2026-05-05 01:16 38.81879 -92.21919 888 ft 14 kts 295°
2026-05-05 01:16 38.81908 -92.22008 888 ft 0 kts 291°